カタログに戻る

STARLINK-37775

運用中通信SSO
NORAD 69348·PAYLOAD·🇺🇸 United States

打ち上げ Jun 3, 2026 から Vandenberg Space Force Base

Loading…

次のパス (今後24時間)

TLE

最新Source: CelesTrak SupGP

元期: Sep 15, 2026, 04:36 UTC

1 69348C 26122V   26258.19215278 -.00071201  00000+0 -22109-2 0  2587
2 69348  97.2828 286.9318 0001210  96.9472  86.5658 15.33466374    17

AllMySatでSTARLINK-37775をリアルタイム追跡

Download on the App Store